Date String (YYYY-MM-DD hh:mm:ss) UTC,Instrument flags,absolute air pressure of the measurement (hPa),sample flow rate (lpm),inlet stack bypass flow (lpm),air temperature of the measurement (°C),ambient temperature measured by the external sensor (°C),aerosol sample conditioner tube jacket temperature (°C),OPC LED temperature (°C),internal box temperature (°C),relative humidity of the measurement (%),span deviation,mass concentration of particles derived from Lorenz-Mie calculation of OPC scattering (μg/m³),mass concentration of particles derived from Lorenz-Mie calculation of OPC scattering (μg/m³),mass concentration of particles derived from Lorenz-Mie calculation of OPC scattering (μg/m³)
DateTimeUTC,F1_M11,P_M11,Q1_M11,Q2_M11,T1_M11,T2_M11,T3_M11,T4_M11,T5_M11,U1_M11,ZSPAN_M11,X0_M11,X2_M11,X1_M11
2023-07-09 18:00:00,SystemResetWarning,0832.3,4.98,000.00,031.2,026.6,000.0,038.9,031.2,33.0,-000.9,0012.53,0007.11,0006.45
2023-07-09 18:01:00,SystemResetWarning,0832.3,5.01,000.00,031.3,026.9,000.0,038.9,031.2,32.8,-000.2,0012.50,0007.15,0006.51
2023-07-09 18:02:00,SystemResetWarning,0832.3,5.01,000.00,031.3,027.2,000.0,039.0,031.3,32.0,0000.2,0012.53,0007.19,0006.56
2023-07-09 18:03:00,SystemResetWarning,0832.4,5.01,000.00,031.4,027.5,000.0,039.1,031.3,31.9,0000.2,0012.65,0007.25,0006.60
2023-07-09 18:04:00,SystemResetWarning,0832.4,4.99,000.00,031.4,027.7,000.0,039.1,031.4,31.4,0000.3,0012.73,0007.30,0006.63
2023-07-09 18:05:00,SystemResetWarning,0832.4,4.99,000.00,031.4,027.8,000.0,039.1,031.4,28.8,0000.5,0012.72,0007.27,0006.62
2023-07-09 18:06:00,SystemResetWarning,0832.4,5.00,000.00,031.4,026.6,000.0,039.0,031.3,30.1,0000.7,0012.89,0007.24,0006.56
2023-07-09 18:07:00,SystemResetWarning,0832.5,5.01,000.00,031.4,025.3,000.0,038.9,031.1,30.3,0000.2,0012.12,0007.13,0006.47
2023-07-09 18:08:00,SystemResetWarning,0832.4,5.02,000.00,031.3,025.1,000.0,038.9,031.0,30.6,-000.1,0011.59,0007.03,0006.38
2023-07-09 18:09:00,SystemResetWarning,0832.5,5.00,000.00,031.1,025.4,000.0,038.9,030.8,29.9,-000.2,0011.33,0006.93,0006.32
2023-07-09 18:10:00,SystemResetWarning,0832.4,4.99,000.00,031.0,025.8,000.0,039.0,030.8,30.9,-000.1,0011.16,0006.82,0006.25
2023-07-09 18:11:00,SystemResetWarning,0832.4,5.00,000.00,030.9,026.3,000.0,039.0,030.9,31.3,0000.4,0010.61,0006.67,0006.10
2023-07-09 18:12:00,SystemResetWarning,0832.4,4.99,000.00,030.9,026.7,000.0,039.0,031.0,28.9,0000.4,0010.61,0006.54,0005.97
2023-07-09 18:13:00,SystemResetWarning,0832.4,4.99,000.00,030.8,027.0,000.0,039.0,031.1,29.5,0000.1,0010.35,0006.38,0005.82
2023-07-09 18:14:00,SystemResetWarning,0832.4,5.00,000.00,030.8,027.3,000.0,039.0,031.1,30.3,0000.0,0010.15,0006.24,0005.71
2023-07-09 18:15:00,SystemResetWarning,0832.4,5.00,000.00,030.8,027.6,000.0,039.0,031.2,29.1,0000.0,0010.34,0006.07,0005.59
2023-07-09 18:16:00,SystemResetWarning,0832.4,5.00,000.00,030.8,027.7,000.0,039.0,031.3,29.0,0000.0,0011.99,0005.93,0005.49
2023-07-09 18:17:00,SystemResetWarning,0832.4,5.00,000.00,030.8,026.8,000.0,038.9,031.2,30.5,0000.0,0011.89,0005.87,0005.42
2023-07-09 18:18:00,SystemResetWarning,0832.3,5.00,000.00,030.7,025.4,000.0,038.7,031.0,30.9,0000.0,0011.71,0005.81,0005.37
2023-07-09 18:19:00,SystemResetWarning,0832.3,5.01,000.00,030.7,025.1,000.0,038.6,030.9,31.3,0000.0,0011.68,0005.76,0005.31
2023-07-09 18:20:00,SystemResetWarning,0832.3,5.01,000.00,030.5,025.3,000.0,038.6,030.7,32.3,0000.0,0011.60,0005.69,0005.25
2023-07-09 18:21:00,SystemResetWarning,0832.3,4.99,000.00,030.4,025.7,000.0,038.6,030.7,35.7,0000.0,0011.54,0005.65,0005.21
2023-07-09 18:22:00,SystemResetWarning,0832.4,5.01,000.00,030.5,026.1,000.0,038.6,030.8,33.6,0000.0,0011.38,0005.60,0005.20
2023-07-09 18:23:00,SystemResetWarning,0832.5,4.99,000.00,030.5,026.5,000.0,038.6,030.9,31.2,0000.0,0010.76,0005.60,0005.20
2023-07-09 18:24:00,SystemResetWarning,0832.4,5.01,000.00,030.6,026.9,000.0,038.7,031.0,31.2,0000.0,0010.92,0005.62,0005.22
2023-07-09 18:25:00,SystemResetWarning,0832.4,4.99,000.00,030.6,027.2,000.0,038.7,031.1,32.5,0000.0,0011.00,0005.66,0005.25
2023-07-09 18:26:00,SystemResetWarning,0832.4,5.00,000.00,030.6,027.5,000.0,038.7,031.1,32.7,0000.0,0010.65,0005.69,0005.26
2023-07-09 18:27:00,SystemResetWarning,0832.4,5.01,000.00,030.6,027.7,000.0,038.7,031.2,30.8,0000.0,0008.80,0005.76,0005.31
2023-07-09 18:28:00,SystemResetWarning,0832.4,5.00,000.00,030.6,027.7,000.0,038.7,031.2,30.5,0000.0,0008.76,0005.76,0005.33
2023-07-09 18:29:00,SystemResetWarning,0832.4,4.98,000.00,030.6,026.5,000.0,038.6,031.1,31.5,0000.0,0008.81,0005.80,0005.34
2023-07-09 18:30:00,SystemResetWarning,0832.3,5.01,000.00,030.6,025.3,000.0,038.5,030.9,30.0,0000.0,0008.85,0005.84,0005.36
2023-07-09 18:31:00,SystemResetWarning,0832.4,5.01,000.00,030.5,025.1,000.0,038.4,030.8,30.4,0000.0,0009.19,0005.88,0005.38
2023-07-09 18:32:00,SystemResetWarning,0832.4,5.00,000.00,030.3,025.4,000.0,038.4,030.6,31.0,0000.0,0009.46,0005.89,0005.39
2023-07-09 18:33:00,SystemResetWarning,0832.4,5.00,000.00,030.2,025.8,000.0,038.5,030.6,31.9,0001.1,0010.13,0005.94,0005.42
2023-07-09 18:34:00,SystemResetWarning,0832.4,5.00,000.00,030.2,026.2,000.0,038.5,030.7,32.1,0000.4,0010.72,0005.98,0005.45
2023-07-09 18:35:00,SystemResetWarning,0832.4,5.00,000.00,030.2,026.6,000.0,038.5,030.8,29.5,0001.6,0010.70,0005.98,0005.47
2023-07-09 18:36:00,SystemResetWarning,0832.4,5.00,000.00,030.2,027.0,000.0,038.5,030.9,29.6,0002.4,0010.74,0005.97,0005.45
2023-07-09 18:37:00,SystemResetWarning,0832.4,5.00,000.00,030.2,027.3,000.0,038.5,030.9,28.1,0002.0,0010.72,0005.93,0005.42
2023-07-09 18:38:00,SystemResetWarning,0832.4,5.00,000.00,030.2,027.6,000.0,038.5,031.0,28.5,0001.5,0010.70,0005.89,0005.37
2023-07-09 18:39:00,SystemResetWarning,0832.4,5.00,000.00,030.2,027.7,000.0,038.5,031.1,30.4,0001.3,0010.68,0005.86,0005.36
2023-07-09 18:40:00,SystemResetWarning,0832.4,4.98,000.00,030.2,026.7,000.0,038.3,031.0,31.1,0000.8,0010.70,0005.85,0005.37
2023-07-09 18:41:00,SystemResetWarning,0832.4,5.00,000.00,030.1,025.4,000.0,038.2,030.8,28.6,0000.0,0010.75,0005.84,0005.35
2023-07-09 18:42:00,SystemResetWarning,0832.4,5.01,000.00,030.0,025.0,000.0,038.1,030.7,29.2,0000.0,0011.01,0005.79,0005.30
2023-07-09 18:43:00,SystemResetWarning,0832.3,5.01,000.00,029.9,025.3,000.0,038.1,030.5,30.4,0000.0,0011.00,0005.73,0005.22
2023-07-09 18:44:00,SystemResetWarning,0832.3,4.99,000.00,029.8,025.7,000.0,038.2,030.5,32.7,0000.0,0010.36,0005.65,0005.15
2023-07-09 18:45:00,SystemResetWarning,0832.3,5.01,000.00,029.8,026.1,000.0,038.2,030.6,32.6,0000.0,0009.77,0005.58,0005.09
2023-07-09 18:46:00,SystemResetWarning,0832.3,5.01,000.00,029.8,026.6,000.0,038.2,030.7,34.4,0000.0,0009.64,0005.56,0005.04
2023-07-09 18:47:00,SystemResetWarning,0832.3,4.98,000.00,029.8,026.9,000.0,038.2,030.8,35.1,0000.0,0009.53,0005.52,0005.00
2023-07-09 18:48:00,SystemResetWarning,0832.4,5.02,000.00,029.9,027.2,000.0,038.2,030.9,33.0,0000.0,0009.77,0005.54,0004.98
2023-07-09 18:49:00,SystemResetWarning,0832.4,4.98,000.00,030.0,027.5,000.0,038.2,031.0,33.1,0000.0,0009.86,0005.56,0004.96
2023-07-09 18:50:00,SystemResetWarning,0832.4,5.00,000.00,030.1,027.7,000.0,038.2,031.0,31.1,0000.0,0010.05,0005.55,0004.93
2023-07-09 18:51:00,SystemResetWarning,0832.4,5.01,000.00,030.1,027.7,000.0,038.2,031.1,30.2,0000.0,0010.50,0005.53,0004.90
2023-07-09 18:52:00,SystemResetWarning,0832.4,4.99,000.00,030.1,026.4,000.0,038.1,031.0,30.0,0000.0,0010.91,0005.53,0004.91
2023-07-09 18:53:00,SystemResetWarning,0832.4,5.00,000.00,030.1,025.2,000.0,038.0,030.8,29.6,0000.0,0010.67,0005.57,0004.97
2023-07-09 18:54:00,SystemResetWarning,0832.3,5.02,000.00,030.0,025.1,000.0,037.9,030.6,30.2,0000.0,0010.69,0005.61,0005.03
2023-07-09 18:55:00,SystemResetWarning,0832.4,5.00,000.00,029.9,025.4,000.0,038.0,030.4,30.3,0000.0,0011.17,0005.66,0005.08
2023-07-09 18:56:00,SystemResetWarning,0832.4,5.00,000.00,029.8,025.8,000.0,038.0,030.5,30.5,0000.0,0012.24,0005.71,0005.11
2023-07-09 18:57:00,SystemResetWarning,0832.4,5.01,000.00,029.8,026.3,000.0,038.1,030.6,30.7,0000.0,0012.61,0005.68,0005.13
2023-07-09 18:58:00,SystemResetWarning,0832.4,4.99,000.00,029.8,026.7,000.0,038.1,030.7,31.4,0000.0,0013.55,0005.69,0005.15
2023-07-09 18:59:00,SystemResetWarning,0832.5,4.99,000.00,029.8,027.0,000.0,038.1,030.7,31.4,0000.0,0013.86,0005.68,0005.16
